• In Germany
  • List of Countries
  • For 7 days
  • Water Temperature
  • Satellite Maps
  • Weather Map
  • Weather Widgets
  • user-avatar
    Login

    Hourly Weather Banja Luka

    Today, 21 September, Thursday

    Time Temperature Precipitation Wind Pressure Humidity
    00:00 +8°C° 0.6 mm 3 mps 714 mmHg 96%
    01:00 +8°C° 0 mm 2 mps 714 mmHg 95%
    02:00 +8°C° 0.6 mm 2 mps 714 mmHg 95%
    03:00 +8°C° 0.6 mm 2 mps 714 mmHg 94%
    04:00 +8°C° 0.6 mm 2 mps 714 mmHg 93%
    05:00 +8°C° 0.2 mm 2 mps 715 mmHg 93%
    06:00 +8°C° 0.2 mm 2 mps 715 mmHg 92%
    07:00 +8°C° 0 mm 2 mps 715 mmHg 90%
    08:00 +10°C° 0.1 mm 3 mps 715 mmHg 84%
    09:00 +11°C° 0.1 mm 3 mps 716 mmHg 77%
    10:00 +12°C° 0.1 mm 3 mps 716 mmHg 71%
    11:00 +13°C° 0.1 mm 3 mps 716 mmHg 66%
    12:00 +14°C° 0.1 mm 3 mps 716 mmHg 61%
    13:00 +14°C° 0 mm 4 mps 716 mmHg 58%
    14:00 +14°C° 0.2 mm 3 mps 716 mmHg 61%
    15:00 +14°C° 0.2 mm 3 mps 716 mmHg 64%
    16:00 +14°C° 0.2 mm 2 mps 716 mmHg 67%
    17:00 +13°C° 0.1 mm 2 mps 716 mmHg 74%
    18:00 +11°C° 0.1 mm 1 mps 716 mmHg 80%
    19:00 +9°C° 0.1 mm 1 mps 716 mmHg 86%
    20:00 +9°C° 0 mm 1 mps 716 mmHg 87%
    21:00 +9°C° 0 mm 1 mps 717 mmHg 87%
    22:00 +9°C° 0 mm 1 mps 717 mmHg 88%
    23:00 +9°C° 0 mm 1 mps 717 mmHg 88%

    Tomorrow, 22 September, Friday

    Time Temperature Precipitation Wind Pressure Humidity
    00:00 +9°C° 0 mm 1 mps 717 mmHg 88%
    01:00 +8°C° 0 mm 1 mps 717 mmHg 88%
    02:00 +8°C° 0 mm 1 mps 717 mmHg 88%
    03:00 +8°C° 0 mm 1 mps 717 mmHg 88%
    04:00 +8°C° 0 mm 1 mps 717 mmHg 88%
    05:00 +8°C° 0 mm 1 mps 717 mmHg 85%
    06:00 +9°C° 0 mm 1 mps 717 mmHg 83%
    07:00 +10°C° 0 mm 1 mps 718 mmHg 80%
    08:00 +13°C° 0 mm 1 mps 718 mmHg 69%
    09:00 +15°C° 0 mm 1 mps 718 mmHg 59%
    10:00 +19°C° 0 mm 1 mps 719 mmHg 48%
    11:00 +18°C° 0 mm 2 mps 719 mmHg 46%
    12:00 +19°C° 0 mm 2 mps 719 mmHg 44%
    13:00 +20°C° 0 mm 2 mps 719 mmHg 42%
    14:00 +19°C° 0 mm 2 mps 719 mmHg 45%
    15:00 +19°C° 0 mm 2 mps 718 mmHg 48%
    16:00 +20°C° 0 mm 1 mps 718 mmHg 51%
    17:00 +16°C° 0 mm 1 mps 718 mmHg 59%
    18:00 +14°C° 0 mm 1 mps 718 mmHg 68%
    19:00 +11°C° 0 mm 0 mps 718 mmHg 77%
    20:00 +10°C° 0 mm 0 mps 718 mmHg 78%
    21:00 +11°C° 0 mm 1 mps 719 mmHg 78%
    22:00 +11°C° 0 mm 1 mps 719 mmHg 79%
    23:00 +11°C° 0 mm 1 mps 719 mmHg 79%

    Day after tomorrow, 23 September, Saturday

    Time Temperature Precipitation Wind Pressure Humidity
    00:00 +11°C° 0 mm 1 mps 719 mmHg 79%
    01:00 +11°C° 0 mm 1 mps 719 mmHg 80%
    02:00 +10°C° 0 mm 1 mps 719 mmHg 81%
    03:00 +9°C° 0 mm 0 mps 718 mmHg 82%
    04:00 +9°C° 0 mm 0 mps 718 mmHg 83%
    05:00 +10°C° 0 mm 0 mps 718 mmHg 81%
    06:00 +10°C° 0 mm 0 mps 719 mmHg 79%
    07:00 +11°C° 0 mm 0 mps 719 mmHg 77%
    08:00 +14°C° 0 mm 0 mps 719 mmHg 69%
    09:00 +16°C° 0 mm 0 mps 719 mmHg 61%
    10:00 +19°C° 0 mm 0 mps 720 mmHg 54%
    11:00 +21°C° 0 mm 1 mps 719 mmHg 52%
    12:00 +22°C° 0 mm 1 mps 719 mmHg 50%
    13:00 +22°C° 0 mm 1 mps 719 mmHg 49%
    14:00 +22°C° 0 mm 1 mps 718 mmHg 52%
    15:00 +21°C° 0 mm 1 mps 718 mmHg 55%
    16:00 +21°C° 0 mm 1 mps 718 mmHg 59%
    17:00 +18°C° 0.1 mm 1 mps 717 mmHg 67%
    18:00 +15°C° 0.1 mm 1 mps 717 mmHg 75%
    19:00 +13°C° 0.1 mm 1 mps 717 mmHg 84%
    20:00 +13°C° 0.1 mm 1 mps 717 mmHg 85%
    21:00 +12°C° 0.1 mm 1 mps 717 mmHg 87%
    22:00 +12°C° 0.1 mm 1 mps 717 mmHg 89%
    23:00 +12°C° 0.1 mm 1 mps 717 mmHg 89%

    24 September, Sunday

    Time Temperature Precipitation Wind Pressure Humidity
    00:00 +12°C° 0.1 mm 1 mps 717 mmHg 90%
    01:00 +11°C° 0.1 mm 1 mps 717 mmHg 90%
    02:00 +11°C° 0 mm 1 mps 717 mmHg 90%
    03:00 +11°C° 0 mm 1 mps 716 mmHg 91%
    04:00 +11°C° 0 mm 1 mps 716 mmHg 91%
    05:00 +12°C° 0 mm 1 mps 716 mmHg 88%
    06:00 +12°C° 0 mm 1 mps 717 mmHg 86%
    07:00 +13°C° 0 mm 1 mps 717 mmHg 84%
    08:00 +16°C° 0 mm 1 mps 717 mmHg 74%
    09:00 +17°C° 0 mm 0 mps 717 mmHg 65%
    10:00 +20°C° 0 mm 0 mps 718 mmHg 56%
    11:00 +22°C° 0.2 mm 1 mps 717 mmHg 55%
    12:00 +23°C° 0.2 mm 1 mps 717 mmHg 54%
    13:00 +23°C° 0.2 mm 1 mps 717 mmHg 53%
    14:00 +22°C° 0.9 mm 1 mps 717 mmHg 62%
    15:00 +20°C° 0.9 mm 1 mps 717 mmHg 70%
    16:00 +19°C° 0.9 mm 1 mps 716 mmHg 79%
    17:00 +18°C° 0.9 mm 1 mps 716 mmHg 83%
    18:00 +15°C° 0.9 mm 0 mps 716 mmHg 87%
    19:00 +13°C° 0.9 mm 0 mps 716 mmHg 91%
    20:00 +13°C° 0.5 mm 0 mps 716 mmHg 92%
    21:00 +14°C° 0.5 mm 1 mps 716 mmHg 93%
    22:00 +14°C° 0.5 mm 1 mps 716 mmHg 94%
    23:00 +13°C° 0.2 mm 1 mps 716 mmHg 94%

    25 September, Monday

    Time Temperature Precipitation Wind Pressure Humidity
    00:00 +13°C° 0.2 mm 1 mps 716 mmHg 95%
    01:00 +13°C° 0.2 mm 1 mps 716 mmHg 95%
    02:00 +12°C° 0.1 mm 1 mps 716 mmHg 95%
    03:00 +12°C° 0.1 mm 1 mps 716 mmHg 95%
    04:00 +12°C° 0.1 mm 1 mps 715 mmHg 95%
    05:00 +12°C° 0 mm 1 mps 716 mmHg 93%
    06:00 +13°C° 0 mm 1 mps 716 mmHg 92%
    07:00 +13°C° 0 mm 1 mps 716 mmHg 90%
    08:00 +15°C° 0 mm 1 mps 716 mmHg 82%
    09:00 +19°C° 0 mm 1 mps 717 mmHg 73%
    10:00 +21°C° 0 mm 1 mps 717 mmHg 64%
    11:00 +21°C° 0.3 mm 1 mps 717 mmHg 63%
    12:00 +22°C° 0.3 mm 1 mps 717 mmHg 62%
    13:00 +22°C° 0.3 mm 1 mps 717 mmHg 61%
    14:00 +21°C° 0.9 mm 1 mps 717 mmHg 68%
    15:00 +20°C° 0.9 mm 1 mps 717 mmHg 74%
    16:00 +20°C° 0.9 mm 1 mps 716 mmHg 80%
    17:00 +18°C° 0.6 mm 1 mps 717 mmHg 84%
    18:00 +15°C° 0.6 mm 0 mps 717 mmHg 88%
    19:00 +14°C° 0.6 mm 0 mps 717 mmHg 92%
    20:00 +13°C° 0.1 mm 0 mps 717 mmHg 92%
    21:00 +13°C° 0.1 mm 0 mps 717 mmHg 93%
    22:00 +13°C° 0.1 mm 1 mps 717 mmHg 94%
    23:00 +13°C° 0.1 mm 1 mps 717 mmHg 94%

    26 September, Tuesday

    Time Temperature Precipitation Wind Pressure Humidity
    00:00 +13°C° 0.1 mm 1 mps 717 mmHg 94%
    01:00 +12°C° 0.1 mm 1 mps 716 mmHg 94%
    02:00 +12°C° 0 mm 1 mps 716 mmHg 94%
    03:00 +11°C° 0 mm 0 mps 716 mmHg 93%
    04:00 +11°C° 0 mm 0 mps 716 mmHg 93%
    05:00 +11°C° 0 mm 0 mps 716 mmHg 92%
    06:00 +12°C° 0 mm 0 mps 717 mmHg 91%
    07:00 +12°C° 0 mm 0 mps 717 mmHg 90%
    08:00 +14°C° 0 mm 0 mps 717 mmHg 83%
    09:00 +18°C° 0 mm 1 mps 717 mmHg 76%
    10:00 +20°C° 0 mm 1 mps 718 mmHg 69%
    11:00 +21°C° 0.1 mm 1 mps 717 mmHg 66%
    12:00 +22°C° 0.1 mm 1 mps 717 mmHg 62%
    13:00 +23°C° 0.1 mm 1 mps 717 mmHg 59%
    14:00 +22°C° 0.7 mm 1 mps 717 mmHg 64%
    15:00 +21°C° 0.7 mm 1 mps 717 mmHg 70%
    16:00 +21°C° 0.7 mm 1 mps 717 mmHg 75%
    17:00 +19°C° 0.7 mm 1 mps 717 mmHg 80%
    18:00 +16°C° 0.7 mm 1 mps 717 mmHg 86%
    19:00 +14°C° 0.7 mm 0 mps 717 mmHg 91%
    20:00 +13°C° 0.4 mm 0 mps 717 mmHg 92%
    21:00 +14°C° 0.4 mm 1 mps 717 mmHg 93%
    22:00 +14°C° 0.4 mm 1 mps 717 mmHg 94%
    23:00 +13°C° 0 mm 0 mps 717 mmHg 94%
    Show more